Weather Roundup
Issued by NWS Springfield, MO

Home | Current Version | Previous Version | Text Only | Print | Product List | Glossary On
Versions: 1 2 3 4 5 6 7 8 9 10 11 12 13 14 15 16 17 18 19 20 21 22 23 24 25 26 27 28 29 30 31 32 33 34 35 36 37 38 39 40 41 42 43 44 45 46 47 48 49 50
000
NZUS99 KSGF 181459
HRRSGF

HOURLY WEATHER
NATIONAL WEATHER SERVICE SPRINGFIELD MO
1000 AM CDT SAT APR 18 2015

......SGF CWA......

CITY           SKY/WX    TMP DP  RH WIND       PRES   REMARKS
SPRINGFIELD    LGT RAIN  62  59  90 SE9       29.96R
JOPLIN         TSTM      59  59 100 E7        29.99R FOG
WEST PLAINS    CLOUDY    63  60  90 SE8       30.01R
ROLLA          PTSUNNY   65  61  87 S7        29.98R
OSAGE BEACH    CLOUDY    66  59  77 SE10G16   29.97S
BRANSON        CLOUDY    63  59  88 S6        29.99R

......SURROUNDING SGF CWA......

CITY           SKY/WX    TMP DP  RH WIND       PRES   REMARKS
CHANUTE        LGT RAIN  62  61  96 SW9       29.95S
PARSONS        LGT RAIN  61  61 100 S6        29.98R
COFFEYVILLE    LGT RAIN  61  59  93 S5        29.98R FOG
EMPORIA        LGT RAIN  60  57  89 E10       29.94S
ROGERS AR      LGT RAIN  61  59  94 NW7       30.02S
SILOAM SPRINGS CLOUDY    61  54  77 CALM      30.02R
HARRISON AR    CLOUDY    62  61  96 SE8       29.99R
NEAR YELLVILLE CLOUDY    61 N/A N/A SE3       29.98R

......KANSAS AND MISSOURI......

CITY           SKY/WX    TMP DP  RH WIND       PRES   REMARKS
KANSAS CTY INT LGT RAIN  62  59  90 SW23G32   29.91R
DOWNTOWN KC    CLOUDY    64  57  78 S15       29.94R THUNDER
COLUMBIA       PTSUNNY   68  62  81 SE7       29.97R
SEDALIA        CLOUDY    71  61  70 S9        29.95R
ST JOSEPH      LGT RAIN  64  57  78 CALM      29.89F
ST LOUIS       CLOUDY    70  60  70 E8        29.99F HAZE
SPIRIT OF STL  CLOUDY    70  60  70 CALM      29.98S
KIRKSVILLE     TSTM      65  56  72 SE20G28   29.98R
WICHITA        LGT RAIN  63  59  87 SE3       29.92R
TOPEKA         RAIN      61  59  93 S9        29.95R FOG
OLATHE         TSTM      60  58  92 S12       29.96R FOG

......TENNESSEE......

CITY           SKY/WX    TMP DP  RH WIND       PRES   REMARKS
MEMPHIS        CLOUDY    67  61  81 E7        29.97R
NASHVILLE      CLOUDY    69  61  75 E3        30.00S

......ARKANSAS.......

CITY           SKY/WX    TMP DP  RH WIND       PRES   REMARKS
FAYETTEVILLE   CLOUDY    62  59  90 N12       30.01R
FT SMITH       LGT RAIN  64  60  87 N9        29.97S
LITTLE ROCK    PTSUNNY   69  61  75 E10       29.96S

......OKLAHOMA.......

CITY           SKY/WX    TMP DP  RH WIND       PRES   REMARKS
TULSA          CLOUDY    63  60  90 E8        29.92R
PONCA CITY     CLOUDY    64  59  83 E7        29.92F
MCALESTER      PTSUNNY   66  61  84 NE9       29.93S
OKLAHOMA CITY  PTSUNNY   66  56  70 E5        29.91S

......IOWA............

CITY           SKY/WX    TMP DP  RH WIND       PRES   REMARKS
DES MOINES     CLOUDY    65  56  72 NE9       29.96S
QUAD CITIES    PTSUNNY   69  52  54 NE6       30.01S

......ILLINOIS........

CITY           SKY/WX    TMP DP  RH WIND       PRES   REMARKS
QUINCY         CLOUDY    71  59  65 S10       29.99S
CHICAGO        PTSUNNY   56  39  53 NE15G28   30.10R




USA.gov is the U.S. government's official web portal to all federal, state and local government web resources and services.